1489672800.57,47037,10.0,72992.3,-8.55,-9.97,-9.71,0,*57
1489672801.79,47038,10.0,73034.0,-8.51,-9.89,-9.79,0,*5B
1489672803.01,47039,10.0,73082.3,-8.55,-9.93,-9.83,0,*50
1489672804.22,47040,10.0,73070.3,-8.55,-9.83,-9.79,0,*5A
1489672805.45,47041,10.0,73050.0,-8.51,-9.79,-9.93,0,*5E
1489672806.7,47042,10.0,73018.0,-8.51,-9.61,-9.67,0,*5F
1489672807.91,47043,10.0,73022.0,-8.51,-9.89,-9.89,0,*58
1489672809.13,47044,10.0,72964.0,-8.55,-9.97,-9.83,0,*5E
1489672810.34,47045,10.0,73020.5,-8.55,-10.23,-10.09,0,*52
1489672811.55,47046,10.0,73032.8,-8.51,-9.89,-9.67,0,*5D
1489672812.8,47047,10.0,73000.0,-8.51,-9.67,-9.49,0,*50
1489672814.08,47048,10.0,72976.0,-8.51,-9.41,-9.41,0,*53
1489672815.36,47049,10.0,73034.0,-8.51,-9.41,-9.37,0,*53
1489672816.59,47050,10.0,73048.5,-8.49,-9.37,-9.27,0,*52
1489672817.84,47051,10.0,73044.5,-8.49,-9.45,-9.45,0,*52
1489672819.04,47052,10.0,73050.8,-8.49,-9.31,-9.27,0,*56
1489672820.27,47053,10.0,73064.0,-8.49,-9.15,-9.05,0,*51
1489672821.52,47054,10.0,73070.8,-8.47,-9.19,-9.15,0,*55
1489672822.77,47055,10.0,73082.5,-8.47,-9.19,-9.15,0,*54
1489672823.99,47056,10.0,73094.0,-8.47,-9.27,-9.19,0,*56
1489672825.19,47057,10.0,73074.5,-8.49,-9.75,-9.75,0,*54
1489672826.43,47058,10.0,73080.8,-8.47,-9.97,-10.01,0,*62
1489672827.65,47059,10.0,73086.3,-8.47,-9.89,-10.01,0,*6C
1489672828.91,47060,10.0,73100.0,-8.47,-9.71,-9.83,0,*53
1489672830.18,47061,10.0,73098.5,-8.47,-10.15,-10.41,0,*5E
1489672831.39,47062,10.0,73090.0,-8.49,-10.15,-10.23,0,*57
1489672832.59,47063,10.0,73080.8,-8.49,-10.01,-9.89,0,*6B
1489672833.81,47064,10.0,73088.8,-8.47,-9.97,-9.97,0,*5A
1489672835.08,47065,10.0,73086.8,-8.49,-10.41,-10.41,0,*55
1489672836.34,47066,10.0,73060.3,-8.47,-10.45,-10.41,0,*5C
1489672837.56,47067,10.0,73054.5,-8.49,-10.15,-10.15,0,*57
1489672838.8,47068,10.0,73058.8,-8.47,-10.09,-10.01,0,*5E
1489672840.03,47069,10.0,73062.8,-8.47,-10.09,-10.09,0,*57
1489672841.27,47070,10.0,73058.8,-8.47,-10.15,-10.15,0,*5F
1489672842.51,47071,10.0,73048.0,-8.47,-10.23,-10.23,0,*5E
1489672843.75,47072,10.0,73034.8,-8.49,-10.27,-10.41,0,*53
1489672844.99,47073,10.0,73048.5,-8.47,-10.27,-10.31,0,*5B
1489672846.23,47074,10.0,73048.8,-8.47,-10.31,-10.27,0,*5C
1489672847.44,47075,10.0,73036.3,-8.49,-10.31,-10.31,0,*54
1489672848.71,47076,10.0,73050.0,-8.47,-10.53,-10.41,0,*5A
1489672849.92,47077,10.0,73084.5,-8.49,-10.53,-10.31,0,*52
1489672851.18,47078,10.0,73088.0,-8.47,-10.41,-10.31,0,*50
1489672852.4,47079,10.0,73094.8,-8.49,-10.31,-10.31,0,*58
1489672853.66,47080,10.0,73104.0,-8.47,-10.41,-10.31,0,*57
1489672854.87,47081,10.0,73094.8,-8.49,-10.53,-10.53,0,*5F
1489672856.08,47082,10.0,73084.5,-8.49,-10.57,-10.57,0,*5C
1489672857.38,47083,10.0,73104.8,-8.47,-10.67,-10.67,0,*53
1489672858.68,47084,10.0,73094.3,-8.47,-10.67,-10.67,0,*54
1489672859.89,47085,10.0,73092.5,-8.49,-10.57,-10.45,0,*58
1489672861.16,47086,10.0,73096.5,-8.47,-10.31,-10.41,0,*51
1489672862.4,47087,10.0,73090.0,-8.47,-10.27,-10.31,0,*50
1489672863.66,47088,10.0,73094.5,-8.49,-10.41,-10.41,0,*56
1489672864.93,47089,10.0,73086.0,-8.49,-10.41,-10.41,0,*57
1489672866.2,47090,10.0,73084.0,-8.47,-10.41,-10.27,0,*51
1489672867.44,47091,10.0,73078.0,-8.47,-10.57,-10.45,0,*53
1489672868.74,47092,10.0,73048.8,-8.47,-10.67,-10.67,0,*53
1489672870.0,47093,10.0,73048.0,-8.47,-10.57,-10.41,0,*55
1489672871.24,47094,10.0,73094.5,-8.47,-10.57,-10.53,0,*51
1489672872.48,47095,10.0,73090.3,-8.49,-10.53,-10.41,0,*59
1489672873.72,47096,10.0,73104.0,-8.47,-10.57,-10.57,0,*57
1489672874.92,47097,10.0,73126.5,-8.49,-10.27,-10.23,0,*5C
1489672876.17,47098,10.0,73104.8,-8.47,-10.15,-10.01,0,*5C
1489672877.39,47099,10.0,73128.3,-8.49,-10.27,-10.27,0,*56
1489672878.63,47100,10.0,73100.8,-8.47,-10.27,-10.27,0,*59
1489672879.87,47101,10.0,73090.3,-8.47,-10.31,-10.27,0,*5F
1489672881.12,47102,10.0,73084.3,-8.47,-10.15,-10.15,0,*5B
1489672882.36,47103,10.0,73100.8,-8.47,-10.01,-10.15,0,*5F
1489672883.59,47104,10.0,73080.3,-8.47,-10.01,-10.01,0,*5D
1489672884.83,47105,10.0,73074.3,-8.47,-10.09,-10.01,0,*54
1489672886.09,47106,10.0,73028.5,-8.47,-10.41,-10.45,0,*5B
1489672887.36,47107,10.0,73052.5,-8.47,-10.31,-10.41,0,*59
1489672888.6,47108,10.0,73066.5,-8.49,-10.41,-10.31,0,*58
1489672889.85,47109,10.0,73086.8,-8.47,-10.15,-10.15,0,*50
1489672891.08,47110,10.0,73076.0,-8.47,-10.09,-10.09,0,*58
1489672892.32,47111,10.0,73094.0,-8.47,-10.15,-10.15,0,*59
1489672893.56,47112,10.0,73090.8,-8.47,-10.27,-10.23,0,*5E
1489672894.85,47113,10.0,73096.5,-8.47,-10.41,-10.41,0,*5B
1489672896.09,47114,10.0,73088.3,-8.47,-10.97,-10.93,0,*58
1489672897.36,47115,10.0,73074.0,-8.47,-10.97,-11.07,0,*55
1489672898.6,47116,10.0,73078.8,-8.47,-10.93,-10.85,0,*59
1489672899.89,47117,10.0,73074.3,-8.47,-10.41,-10.41,0,*5F
1489672901.1,47118,10.0,73068.0,-8.49,-10.27,-10.27,0,*5E
1489672902.35,47119,10.0,73030.0,-8.47,-10.31,-10.31,0,*51
1489672903.61,47120,10.0,73042.8,-8.47,-10.41,-10.31,0,*5C
1489672904.88,47121,10.0,73056.8,-8.47,-10.31,-10.41,0,*5D
1489672906.12,47122,10.0,73074.5,-8.47,-10.31,-10.31,0,*59
1489672907.36,47123,10.0,73074.3,-8.47,-10.27,-10.31,0,*5F
1489672908.66,47124,10.0,73060.8,-8.47,-10.71,-10.67,0,*58
1489672909.91,47125,10.0,73060.0,-8.47,-10.79,-10.85,0,*5D
1489672911.17,47126,10.0,73070.3,-8.47,-10.53,-10.67,0,*5A
1489672912.41,47127,10.0,73062.3,-8.47,-10.57,-10.57,0,*5C
1489672913.65,47128,10.0,73088.3,-8.49,-10.57,-10.67,0,*5E
1489672914.88,47129,10.0,73082.8,-8.47,-10.53,-10.53,0,*52
1489672916.13,47130,10.0,73078.5,-8.49,-10.57,-10.67,0,*57
1489672917.42,47131,10.0,73076.5,-8.47,-10.71,-10.71,0,*5B
1489672918.71,47132,10.0,73086.8,-8.47,-10.41,-10.41,0,*58
1489672919.97,47133,10.0,73058.8,-8.49,-11.07,-11.07,0,*57
1489672921.22,47134,10.0,73024.8,-8.49,-11.07,-10.97,0,*58
1489672922.43,47135,10.0,73032.5,-8.49,-10.93,-10.93,0,*51
1489672923.66,47136,10.0,73046.0,-8.49,-10.79,-10.85,0,*51
1489672924.89,47137,10.0,73060.3,-8.49,-10.85,-10.79,0,*50
1489672926.13,47138,10.0,73056.8,-8.49,-10.93,-10.79,0,*58
1489672927.4,47139,10.0,73048.5,-8.49,-10.71,-10.67,0,*5A
1489672928.66,47140,10.0,73078.8,-8.49,-10.79,-10.71,0,*5B
1489672929.92,47141,10.0,73078.0,-8.49,-10.79,-10.79,0,*52
1489672931.13,47142,10.0,73088.5,-8.49,-10.57,-10.45,0,*52
1489672932.37,47143,10.0,73104.8,-8.49,-10.41,-10.31,0,*57
1489672933.58,47144,10.0,73114.3,-8.49,-10.23,-10.23,0,*57
1489672934.8,47145,10.0,73086.3,-8.49,-10.23,-10.31,0,*55
1489672936.01,47146,10.0,73070.5,-8.49,-10.31,-10.31,0,*55
1489672937.23,47147,10.0,73086.0,-8.49,-10.15,-10.15,0,*54
1489672938.43,47148,10.0,73086.0,-8.49,-10.09,-10.09,0,*5B
1489672939.67,47149,10.0,73084.5,-8.47,-10.15,-10.09,0,*59
1489672940.9,47150,10.0,73078.3,-8.47,-10.09,-10.01,0,*54
1489672942.12,47151,10.0,73062.3,-8.49,-10.15,-10.23,0,*56
1489672943.38,47152,10.0,73048.3,-8.49,-11.07,-11.07,0,*50
1489672944.59,47153,10.0,73008.0,-8.49,-11.15,-11.15,0,*51
1489672945.8,47154,10.0,73046.5,-8.49,-11.23,-11.23,0,*56
1489672947.06,47155,10.0,73050.3,-8.51,-11.19,-11.29,0,*5D
1489672948.27,47156,10.0,73040.5,-8.55,-11.01,-11.01,0,*59
1489672949.51,47157,10.0,73026.0,-8.51,-10.89,-10.89,0,*5C
1489672950.77,47158,10.0,73004.3,-8.55,-11.07,-11.07,0,*57
1489672952.03,47159,10.0,73004.0,-8.55,-11.07,-11.07,0,*56
1489672953.29,47160,10.0,73008.5,-8.55,-11.51,-11.37,0,*5C
1489672954.54,47161,10.0,73008.8,-8.55,-11.37,-11.37,0,*5D
1489672955.8,47162,10.0,72986.0,-8.55,-11.33,-11.37,0,*5A
1489672957.04,47163,10.0,72968.5,-8.59,-11.37,-11.33,0,*57
1489672958.25,47164,10.0,72978.3,-8.59,-11.23,-11.23,0,*54
1489672959.46,47165,10.0,73050.0,-8.59,-11.01,-11.01,0,*55
1489672960.66,47166,10.0,73044.5,-8.59,-10.89,-10.89,0,*56
1489672961.86,47167,10.0,73018.8,-8.59,-11.19,-11.19,0,*57
1489672963.12,47168,10.0,73038.3,-8.61,-10.85,-10.79,0,*50
1489672964.42,47169,10.0,73010.5,-8.61,-10.67,-10.67,0,*52
1489672965.68,47170,10.0,72984.8,-8.61,-10.79,-10.85,0,*59
1489672966.93,47171,10.0,73008.8,-8.61,-10.97,-10.97,0,*5B
1489672968.19,47172,10.0,73034.0,-8.61,-10.93,-10.71,0,*54
1489672969.44,47173,10.0,72970.0,-8.61,-10.97,-10.97,0,*59
1489672970.71,47174,10.0,73024.0,-8.61,-10.97,-11.07,0,*56
1489672971.95,47175,10.0,72946.5,-8.63,-10.67,-10.57,0,*5E
1489672973.19,47176,10.0,73024.3,-8.63,-10.67,-10.53,0,*59
1489672974.41,47177,10.0,73044.5,-8.63,-10.35,-10.27,0,*5C
1489672975.63,47178,10.0,73046.5,-8.63,-10.27,-10.15,0,*51
1489672976.87,47179,10.0,73046.5,-8.61,-10.15,-10.15,0,*53
1489672978.11,47180,10.0,73054.3,-8.61,-10.23,-10.23,0,*55
1489672979.35,47181,10.0,73030.5,-8.61,-10.23,-10.27,0,*50
1489672980.6,47182,10.0,73080.3,-8.61,-10.15,-10.35,0,*55
1489672981.87,47183,10.0,73048.3,-8.61,-10.41,-10.57,0,*51
1489672983.1,47184,10.0,73074.3,-8.61,-10.57,-10.53,0,*55
1489672984.37,47185,10.0,73052.3,-8.61,-10.71,-10.57,0,*54
1489672985.61,47186,10.0,73048.3,-8.61,-10.57,-10.53,0,*57
1489672986.85,47187,10.0,73046.0,-8.61,-10.27,-10.15,0,*53
1489672988.09,47188,10.0,73068.8,-8.61,-10.15,-10.09,0,*50
1489672989.33,47189,10.0,73076.8,-8.61,-9.97,-10.01,0,*6B
1489672990.57,47190,10.0,73056.0,-8.61,-9.89,-9.83,0,*5E
1489672991.77,47191,10.0,73064.3,-8.59,-10.09,-10.09,0,*5E
1489672993.01,47192,10.0,73060.0,-8.61,-10.15,-10.01,0,*53
1489672994.23,47193,10.0,73058.8,-8.59,-9.83,-9.67,0,*56
1489672995.46,47194,10.0,73068.3,-8.59,-9.57,-9.57,0,*5B
1489672996.66,47195,10.0,73054.3,-8.59,-9.71,-9.79,0,*52
1489672997.87,47196,10.0,73022.5,-8.59,-10.19,-10.19,0,*59
1489672999.11,47197,10.0,73024.8,-8.51,-10.27,-10.31,0,*57
1489673000.33,47198,10.0,73018.3,-8.55,-10.35,-10.35,0,*5B
1489673001.57,47199,10.0,72982.3,-8.55,-10.63,-10.53,0,*59
1489673002.8,47200,10.0,73002.8,-8.55,-10.63,-10.53,0,*5A
1489673004.01,47201,10.0,73034.8,-8.55,-10.09,-10.19,0,*59
1489673005.21,47202,10.0,73052.3,-8.55,-10.09,-10.05,0,*57
1489673006.43,47203,10.0,73068.3,-8.51,-9.93,-9.93,0,*5E
1489673007.63,47204,10.0,73054.0,-8.55,-10.05,-10.09,0,*51
1489673008.83,47205,10.0,73054.0,-8.55,-10.05,-10.09,0,*50
1489673010.03,47206,10.0,73048.8,-8.55,-10.05,-10.09,0,*53
1489673011.23,47207,10.0,73042.3,-8.55,-9.97,-10.09,0,*61
1489673012.47,47208,10.0,73034.8,-8.51,-10.01,-10.15,0,*50
1489673013.67,47209,10.0,73014.8,-8.55,-10.09,-10.19,0,*51
1489673014.88,47210,10.0,73048.0,-8.55,-10.19,-10.23,0,*51
1489673016.13,47211,10.0,73034.8,-8.51,-10.27,-10.35,0,*5E
1489673017.37,47212,10.0,73042.5,-8.51,-10.27,-10.31,0,*59
1489673018.59,47213,10.0,73000.5,-8.51,-10.89,-10.85,0,*53
1489673019.84,47214,10.0,73012.3,-8.51,-10.97,-10.97,0,*58
1489673021.13,47215,10.0,72994.5,-8.51,-10.75,-10.75,0,*59
1489673022.4,47216,10.0,73058.8,-8.55,-10.67,-10.75,0,*5D
1489673023.68,47217,10.0,73030.8,-8.51,-10.75,-10.75,0,*5B
1489673024.95,47218,10.0,73046.8,-8.51,-10.63,-10.57,0,*53
1489673026.2,47219,10.0,73064.8,-8.51,-10.35,-10.35,0,*55
1489673027.43,47220,10.0,73068.3,-8.51,-10.05,-10.19,0,*52
1489673028.65,47221,10.0,73084.3,-8.51,-9.89,-9.89,0,*5E
1489673029.89,47222,10.0,73106.3,-8.51,-10.19,-10.19,0,*5D
1489673031.13,47223,10.0,73100.0,-8.51,-10.85,-10.89,0,*50
1489673032.36,47224,10.0,73058.8,-8.55,-10.79,-10.89,0,*50
1489673033.62,47225,10.0,73024.8,-8.55,-10.67,-10.79,0,*51
1489673034.89,47226,10.0,72978.8,-8.51,-10.57,-10.63,0,*5E
1489673036.1,47227,10.0,73012.5,-8.55,-10.35,-10.45,0,*5B
1489673037.35,47228,10.0,73044.0,-8.51,-10.35,-10.27,0,*54
1489673038.59,47229,10.0,73036.8,-8.51,-10.45,-10.35,0,*51
1489673039.82,47230,10.0,73098.0,-8.55,-10.53,-10.41,0,*59
1489673041.06,47231,10.0,73110.3,-8.51,-10.31,-10.31,0,*5F
1489673042.27,47232,10.0,73064.3,-8.55,-10.49,-10.49,0,*58
1489673043.5,47233,10.0,73018.3,-8.51,-10.15,-10.05,0,*5C
1489673044.73,47234,10.0,72998.5,-8.51,-10.05,-10.05,0,*5A
1489673045.97,47235,10.0,73034.3,-8.51,-10.57,-10.57,0,*5B
1489673047.24,47236,10.0,73044.0,-8.51,-10.57,-10.63,0,*5F
1489673048.53,47237,10.0,73072.5,-8.51,-10.71,-10.63,0,*5A
1489673049.75,47238,10.0,73038.3,-8.51,-10.89,-10.85,0,*5A
1489673051.01,47239,10.0,73030.5,-8.55,-10.79,-10.75,0,*5F
1489673052.25,47240,10.0,73006.8,-8.55,-10.79,-10.89,0,*52
1489673053.49,47241,10.0,72984.3,-8.51,-11.01,-11.01,0,*58
1489673054.69,47242,10.0,72988.5,-8.55,-10.89,-11.01,0,*5E
1489673055.91,47243,10.0,72982.3,-8.55,-10.35,-10.49,0,*55
1489673057.14,47244,10.0,72976.5,-8.55,-10.49,-10.63,0,*51
1489673058.35,47245,10.0,72984.5,-8.55,-10.57,-10.57,0,*58
1489673059.59,47246,10.0,73004.0,-8.55,-10.63,-10.53,0,*58
1489673060.79,47247,10.0,73034.8,-8.55,-10.53,-10.53,0,*5A
1489673062.0,47248,10.0,73058.0,-8.55,-10.49,-10.49,0,*55
1489673063.23,47249,10.0,73044.0,-8.51,-10.45,-10.45,0,*50
1489673064.47,47250,10.0,73028.0,-8.55,-11.07,-11.19,0,*53
1489673065.73,47251,10.0,73008.0,-8.55,-11.07,-11.07,0,*5D
1489673066.94,47252,10.0,73026.3,-8.55,-11.01,-11.01,0,*5E
1489673068.15,47253,10.0,73016.0,-8.55,-10.93,-10.93,0,*5F
1489673069.4,47254,10.0,72994.8,-8.61,-10.93,-10.97,0,*5B
1489673070.6,47255,10.0,72960.5,-8.59,-10.53,-10.53,0,*55
1489673071.8,47256,10.0,72962.3,-8.59,-10.49,-10.53,0,*5D
1489673073.01,47257,10.0,72968.3,-8.59,-10.93,-10.93,0,*57
1489673074.3,47258,10.0,73006.3,-8.61,-10.79,-10.67,0,*5C
1489673075.57,47259,10.0,73002.5,-8.59,-10.67,-10.63,0,*5D
1489673076.8,47260,10.0,72996.5,-8.59,-10.63,-10.53,0,*50
1489673078.09,47261,10.0,72984.8,-8.61,-10.79,-10.71,0,*51
1489673079.35,47262,10.0,72978.8,-8.59,-10.75,-10.67,0,*52
1489673080.62,47263,10.0,72986.8,-8.61,-10.93,-10.79,0,*5F
1489673081.88,47264,10.0,72964.5,-8.61,-10.45,-10.41,0,*58
1489673083.11,47265,10.0,72982.8,-8.59,-10.63,-10.53,0,*55
1489673084.34,47266,10.0,73016.5,-8.59,-10.53,-10.41,0,*56
1489673085.61,47267,10.0,73014.5,-8.59,-10.41,-10.41,0,*54
1489673086.84,47268,10.0,73026.8,-8.55,-10.49,-10.41,0,*5F
1489673088.14,47269,10.0,73098.0,-8.61,-10.41,-10.41,0,*51
1489673089.37,47270,10.0,73106.8,-8.59,-10.75,-10.89,0,*51
1489673090.63,47271,10.0,73094.8,-8.59,-10.67,-10.75,0,*50
1489673091.92,47272,10.0,73066.0,-8.61,-11.07,-11.07,0,*5B
1489673093.17,47273,10.0,73072.8,-8.61,-10.97,-11.11,0,*55
1489673094.38,47274,10.0,73094.0,-8.63,-10.97,-11.19,0,*58
1489673095.61,47275,9.94,73100.5,-8.63,-10.67,-10.85,0,*52
1489673096.84,47276,10.0,73026.3,-8.63,-10.53,-10.71,0,*5D
1489673098.04,47277,10.0,72988.8,-8.63,-10.45,-10.53,0,*5B
1489673099.28,47278,10.0,72964.3,-8.63,-10.45,-10.41,0,*57
1489673100.55,47279,10.0,72960.0,-8.63,-10.41,-10.41,0,*52
1489673101.78,47280,10.0,72962.3,-8.65,-10.49,-10.57,0,*5D
1489673103.0,47281,10.0,72976.0,-8.63,-10.27,-10.27,0,*55
1489673104.21,47282,10.0,72992.0,-8.63,-10.27,-10.27,0,*56
1489673105.43,47283,10.0,73006.8,-8.63,-10.35,-10.27,0,*54
1489673106.67,47284,10.0,73008.0,-8.61,-10.53,-10.35,0,*52
1489673107.9,47285,10.0,73002.8,-8.61,-10.53,-10.45,0,*54
1489673109.17,47286,10.0,73022.3,-8.61,-10.67,-10.57,0,*53
1489673110.44,47287,10.0,73034.8,-8.61,-10.45,-10.41,0,*55
1489673111.67,47288,10.0,73046.3,-8.61,-10.53,-10.45,0,*59
1489673112.94,47289,10.0,73044.5,-8.61,-10.45,-10.41,0,*5B
1489673114.18,47290,9.94,73038.5,-8.61,-10.57,-10.53,0,*53
1489673115.42,47291,10.0,73038.0,-8.61,-10.93,-10.97,0,*52
1489673116.66,47292,10.0,73042.5,-8.61,-10.93,-10.93,0,*55
1489673117.9,47293,10.0,73040.0,-8.61,-10.93,-10.93,0,*54
1489673119.15,47294,9.94,73020.0,-8.61,-10.97,-10.97,0,*53
1489673120.41,47295,10.0,73028.5,-8.63,-11.07,-11.07,0,*50
1489673121.62,47296,10.0,73032.8,-8.63,-10.53,-10.57,0,*57
1489673122.91,47297,10.0,73052.0,-8.65,-10.71,-10.63,0,*57
1489673124.15,47298,10.0,73054.0,-8.63,-10.41,-10.35,0,*5E
1489673125.37,47299,10.0,73056.8,-8.63,-10.27,-10.35,0,*5F
1489673126.59,47300,10.0,73044.3,-8.63,-10.35,-10.27,0,*5E
1489673127.82,47301,10.0,73038.0,-8.63,-10.45,-10.41,0,*58
1489673129.08,47302,9.94,73032.3,-8.61,-10.53,-10.41,0,*5E
1489673130.33,47303,10.0,73066.3,-8.61,-10.45,-10.27,0,*58
1489673131.57,47304,9.94,73088.8,-8.61,-10.27,-10.27,0,*5B
1489673132.81,47305,10.0,73038.5,-8.61,-10.35,-10.23,0,*5D
1489673134.08,47306,10.0,73076.5,-8.61,-10.41,-10.27,0,*59
1489673135.35,47307,10.0,73044.8,-8.61,-10.53,-10.41,0,*5B
1489673136.62,47308,9.94,73030.0,-8.61,-10.67,-10.53,0,*50
1489673137.86,47309,10.0,73058.3,-8.61,-10.45,-10.27,0,*52
1489673139.12,47310,9.94,73030.3,-8.61,-10.85,-10.79,0,*5D
1489673140.41,47311,10.0,73050.5,-8.61,-10.79,-10.71,0,*57
1489673141.67,47312,10.0,73032.5,-8.63,-10.71,-10.67,0,*59
1489673142.91,47313,9.94,72972.3,-8.63,-10.45,-10.41,0,*5B
1489673144.18,47314,9.94,72960.8,-8.63,-10.41,-10.41,0,*58
1489673145.43,47315,10.0,73008.3,-8.65,-10.85,-10.71,0,*54
1489673146.64,47316,10.0,73028.5,-8.63,-10.53,-10.45,0,*5D
1489673147.85,47317,10.0,73066.5,-8.63,-10.27,-10.15,0,*5A
1489673149.06,47318,10.0,73064.3,-8.63,-10.27,-10.23,0,*50
1489673150.26,47319,10.0,73074.0,-8.63,-10.01,-9.89,0,*6D
1489673151.47,47320,10.0,73080.8,-8.63,-10.23,-10.15,0,*5A
1489673152.67,47321,10.0,73070.0,-8.63,-9.97,-9.75,0,*52
1489673153.89,47322,10.0,73072.0,-8.63,-9.71,-9.61,0,*5C
1489673155.09,47323,10.0,73058.5,-8.63,-9.75,-9.75,0,*5C
1489673156.33,47324,10.0,73070.3,-8.61,-10.23,-10.23,0,*59
1489673157.54,47325,10.0,73088.5,-8.59,-10.19,-10.19,0,*53
1489673158.78,47326,10.0,73100.5,-8.61,-10.09,-10.01,0,*53
1489673160.02,47327,10.0,73068.5,-8.61,-10.23,-10.09,0,*52
1489673161.24,47328,10.0,73068.0,-8.61,-10.01,-9.97,0,*62
1489673162.47,47329,10.0,73076.3,-8.61,-9.97,-9.75,0,*58
1489673163.72,47330,10.0,73068.8,-8.61,-9.75,-9.61,0,*59
1489673164.92,47331,10.0,73074.8,-8.59,-9.71,-9.71,0,*56
1489673166.16,47332,10.0,73082.3,-8.59,-9.53,-9.45,0,*52
1489673167.41,47333,10.0,73072.0,-8.59,-9.45,-9.53,0,*53
1489673168.65,47334,9.94,73076.8,-8.59,-9.45,-9.53,0,*54
1489673169.87,47335,10.0,73056.0,-8.55,-9.79,-9.83,0,*5B
1489673171.07,47336,10.0,73052.3,-8.55,-9.79,-9.93,0,*59
1489673172.28,47337,10.0,73064.3,-8.55,-10.05,-10.19,0,*51
1489673173.52,47338,10.0,73080.8,-8.51,-9.79,-10.01,0,*60
1489673174.71,47339,10.0,73078.3,-8.55,-9.93,-9.97,0,*56
1489673175.91,47340,10.0,73068.0,-8.55,-10.01,-10.05,0,*58
1489673177.11,47341,10.0,73094.0,-8.55,-10.05,-10.05,0,*5D
1489673178.35,47342,10.0,73098.3,-8.51,-10.27,-10.27,0,*5A
1489673179.59,47343,10.0,73068.5,-8.55,-10.41,-10.31,0,*58
1489673180.84,47344,10.0,73100.5,-8.51,-10.19,-10.19,0,*5C
1489673182.08,47345,10.0,73074.0,-8.51,-10.27,-10.27,0,*5D
1489673183.32,47346,10.0,73058.3,-8.51,-10.15,-10.05,0,*5F
1489673184.53,47347,9.94,73078.3,-8.55,-10.35,-10.23,0,*5C
1489673185.77,47348,10.0,73074.3,-8.51,-10.19,-10.15,0,*5C
1489673187.02,47349,10.0,73060.3,-8.51,-10.19,-10.15,0,*5D
1489673188.22,47350,10.0,73066.0,-8.49,-10.01,-9.89,0,*68
1489673189.46,47351,10.0,73028.3,-8.51,-10.19,-10.19,0,*58
1489673190.71,47352,10.0,73076.0,-8.51,-10.27,-10.27,0,*5B
1489673191.95,47353,10.0,73078.8,-8.51,-10.19,-10.15,0,*56
1489673193.19,47354,10.0,73072.3,-8.51,-10.27,-10.27,0,*5D
1489673194.4,47355,10.0,73080.0,-8.55,-10.31,-10.09,0,*53
1489673195.63,47356,9.94,73086.0,-8.51,-10.05,-10.01,0,*5B
1489673196.85,47357,10.0,73096.3,-8.49,-9.89,-9.83,0,*5D
1489673198.09,47358,10.0,73086.8,-8.51,-10.01,-10.01,0,*51
1489673199.33,47359,10.0,73096.5,-8.51,-10.01,-10.01,0,*50
1489673200.56,47360,10.0,73110.8,-8.47,-9.97,-10.01,0,*6A
1489673201.76,47361,10.0,73098.0,-8.49,-10.09,-10.09,0,*52
1489673202.98,47362,10.0,73094.0,-8.49,-10.15,-10.15,0,*51
1489673204.21,47363,10.0,73098.8,-8.47,-10.23,-10.23,0,*5E
1489673205.43,47364,10.0,73086.3,-8.49,-10.23,-10.27,0,*53
1489673206.64,47365,10.0,73104.3,-8.49,-10.45,-10.45,0,*56
1489673207.88,47366,9.94,73094.8,-8.49,-10.41,-10.45,0,*51
1489673209.14,47367,10.0,73100.8,-8.47,-10.57,-10.71,0,*5E
1489673210.36,47368,10.0,73092.8,-8.49,-10.97,-10.97,0,*5B
1489673211.59,47369,10.0,73054.3,-8.51,-10.89,-10.89,0,*53
1489673212.86,47370,10.0,73056.8,-8.51,-10.57,-10.63,0,*5C
1489673214.12,47371,10.0,73066.8,-8.51,-10.71,-10.57,0,*5E
1489673215.39,47372,10.0,73050.3,-8.49,-10.67,-10.67,0,*50
1489673216.6,47373,9.94,73018.5,-8.49,-10.57,-10.53,0,*55
1489673217.84,47374,10.0,73068.0,-8.47,-10.57,-10.53,0,*5C
1489673219.05,47375,10.0,73046.8,-8.49,-10.53,-10.53,0,*57
1489673220.26,47376,10.0,73074.8,-8.49,-10.57,-10.57,0,*54
1489673221.5,47377,10.0,73072.8,-8.51,-10.35,-10.35,0,*5C
1489673222.72,47378,10.0,73070.3,-8.49,-10.57,-10.53,0,*5E
1489673223.92,47379,10.0,73064.5,-8.49,-11.15,-11.23,0,*5E
1489673225.13,47380,10.0,73046.5,-8.49,-11.15,-11.23,0,*58
1489673226.4,47381,10.0,73024.0,-8.49,-10.79,-10.67,0,*53
1489673227.61,47382,10.0,73012.8,-8.49,-10.97,-10.93,0,*5B
1489673228.85,47383,10.0,73004.0,-8.51,-10.97,-10.89,0,*58
1489673230.1,47384,9.94,73010.3,-8.51,-11.01,-11.01,0,*50
1489673231.37,47385,10.0,73022.5,-8.55,-10.67,-10.67,0,*55
1489673232.61,47386,10.0,73108.8,-8.51,-11.41,-11.45,0,*56
1489673233.84,47387,10.0,73108.0,-8.55,-11.07,-11.01,0,*51
1489673235.08,47388,10.0,73086.8,-8.55,-11.01,-11.07,0,*5E
1489673236.32,47389,10.0,73032.5,-8.55,-11.15,-11.07,0,*5A
1489673237.58,47390,10.0,73040.0,-8.55,-10.75,-10.75,0,*51
1489673238.78,47391,10.0,73056.5,-8.55,-10.53,-10.53,0,*50
1489673240.05,47392,10.0,73070.5,-8.55,-10.67,-10.63,0,*57
1489673241.32,47393,10.0,73100.0,-8.55,-10.67,-10.67,0,*52
1489673242.58,47394,10.0,73050.0,-8.55,-10.75,-10.75,0,*55
1489673243.85,47395,10.0,73078.3,-8.59,-10.67,-10.67,0,*58
1489673245.11,47396,10.0,73080.3,-8.59,-10.67,-10.63,0,*5F
1489673246.35,47397,10.0,73082.0,-8.61,-10.27,-10.45,0,*55
1489673247.56,47398,10.0,73114.8,-8.59,-10.23,-10.31,0,*56
1489673248.79,47399,10.0,73118.5,-8.59,-10.79,-10.89,0,*5B
1489673250.01,47400,10.0,73106.0,-8.59,-11.19,-11.33,0,*5B
1489673251.21,47401,10.0,73092.0,-8.59,-11.19,-11.23,0,*5B
1489673252.49,47402,10.0,73102.8,-8.61,-11.29,-11.37,0,*55
1489673253.76,47403,10.0,73092.3,-8.61,-11.23,-11.29,0,*51
1489673255.0,47404,10.0,73080.8,-8.61,-11.11,-11.19,0,*54
1489673256.28,47405,10.0,73088.5,-8.61,-11.37,-11.37,0,*5D
1489673257.51,47406,10.0,73092.0,-8.63,-11.11,-11.07,0,*5B
1489673258.72,47407,10.0,73090.8,-8.63,-11.11,-11.19,0,*55
1489673259.93,47408,10.0,73102.5,-8.63,-10.93,-10.93,0,*52
1489673261.17,47409,10.0,73064.8,-8.63,-11.29,-11.11,0,*58
1489673262.4,47410,10.0,73052.8,-8.65,-11.11,-11.01,0,*5C
1489673263.69,47411,10.0,73044.5,-8.65,-10.71,-10.63,0,*5F
1489673264.98,47412,10.0,73062.5,-8.65,-10.75,-10.75,0,*5F
1489673266.25,47413,10.0,73054.3,-8.63,-11.07,-11.07,0,*58
1489673267.49,47414,10.0,73078.8,-8.65,-11.01,-10.97,0,*57
1489673268.75,47415,10.0,73086.0,-8.65,-11.23,-11.29,0,*52
1489673269.99,47416,10.0,73098.0,-8.65,-11.41,-11.41,0,*5B
1489673271.23,47417,10.0,73090.5,-8.65,-11.23,-11.23,0,*5A
1489673272.44,47418,10.0,73092.8,-8.67,-11.11,-10.97,0,*58
1489673273.68,47419,10.0,73094.3,-8.69,-11.01,-11.01,0,*58
1489673274.89,47420,10.0,73094.0,-8.67,-10.89,-10.85,0,*50
1489673276.1,47421,10.0,73084.3,-8.67,-10.89,-10.93,0,*56
1489673277.36,47422,10.0,73066.5,-8.67,-10.71,-10.71,0,*5E
1489673278.57,47423,10.0,73064.0,-8.67,-11.15,-11.11,0,*5B
1489673279.86,47424,10.0,73074.5,-8.69,-11.07,-11.07,0,*56
1489673281.16,47425,10.0,73086.3,-8.69,-10.67,-10.63,0,*53
1489673282.4,47426,10.0,73088.5,-8.69,-10.53,-10.49,0,*5F
1489673283.7,47427,10.0,73090.5,-8.69,-10.67,-10.67,0,*55
1489673284.91,47428,10.0,73088.8,-8.67,-10.97,-11.01,0,*5A
1489673286.21,47429,10.0,73080.5,-8.69,-11.29,-11.29,0,*5B
1489673287.45,47430,10.0,73080.0,-8.67,-11.01,-11.07,0,*5B
1489673288.71,47431,10.0,73104.5,-8.67,-11.33,-11.33,0,*5C
1489673289.99,47432,10.0,73110.8,-8.69,-11.73,-11.77,0,*55
1489673291.28,47433,10.0,73102.8,-8.69,-11.89,-11.89,0,*50
1489673292.57,47434,10.0,73090.0,-8.69,-11.63,-11.63,0,*57
1489673293.83,47435,10.0,73072.0,-8.71,-11.37,-11.37,0,*5F
1489673295.12,47436,10.0,73074.5,-8.73,-11.33,-11.37,0,*5A
1489673296.4,47437,10.0,73066.5,-8.73,-10.79,-10.71,0,*57
1489673297.61,47438,10.0,73052.3,-8.71,-10.49,-10.49,0,*52
1489673298.88,47439,10.0,73002.3,-8.71,-10.63,-10.63,0,*53
1489673300.12,47440,10.0,72964.3,-8.73,-10.93,-10.85,0,*58
1489673301.36,47441,10.0,72996.0,-8.71,-11.01,-11.07,0,*5A
1489673302.62,47442,10.0,73074.8,-8.73,-11.19,-11.07,0,*52
1489673303.89,47443,10.0,73068.3,-8.73,-11.07,-11.11,0,*5B
1489673305.1,47444,10.0,73092.0,-8.71,-10.89,-10.89,0,*59
1489673306.31,47445,10.0,73058.0,-8.71,-10.93,-10.89,0,*53